Regional Weather Roundup
Issued by NWS Little Rock, AR

Home | Current Version | Previous Version | Graphics & Text | Print | Product List | Glossary On
Versions: 1 2 3 4 5 6 7 8 9 10 11 12 13 14 15 16 17 18 19 20 21 22 23 24 25 26 27 28 29 30 31 32 33 34 35 36 37 38 39 40 41 42 43 44 45 46 47 48 49 50
000
ASUS44 KLZK 151705
RWRLZK

WEATHER ROUNDUP FOR ARKANSAS
NATIONAL WEATHER SERVICE LITTLE ROCK AR
1200 PM CDT MON SEP 15 2014

NOTE: "FAIR" INDICATES FEW OR NO CLOUDS BELOW 12,000 FEET WITH NO
SIGNIFICANT WEATHER AND/OR OBSTRUCTIONS TO VISIBILITY.

ARZ001-003-010-029-151800-
NORTHWEST ARKANSAS

CITY           SKY/WX    TMP DP  RH WIND       PRES   REMARKS
FAYETTEVILLE   CLOUDY    69  65  86 S8        30.19S
FORT SMITH     CLOUDY    71  65  81 NE7       30.17S
HARRISON       CLOUDY    68  66  93 CALM      30.18R
BENTONVILLE    CLOUDY    72  64  78 SW9       30.19S
ROGERS         CLOUDY    71  65  81 SW7       30.19F
SILOAM SPGS    CLOUDY    72  63  73 SW10      30.20S
HIGHFILL       CLOUDY    70  66  87 SW7       30.18S
SPRINGDALE     CLOUDY    72  66  83 W8        30.21R
$$

ARZ004-005-016-151800-
NORTH CENTRAL ARKANSAS

CITY           SKY/WX    TMP DP  RH WIND       PRES   REMARKS
BATESVILLE     CLOUDY    68  63  83 CALM      30.17F
FLIPPIN        CLOUDY    70  61  73 SW3       30.16S
MTN HOME       CLOUDY    68  64  87 S5        30.16S
$$

ARZ040-041-151800-
WEST CENTRAL ARKANSAS

CITY           SKY/WX    TMP DP  RH WIND       PRES   REMARKS
MENA             N/A     72  68  88 CALM        N/A
MOUNT IDA      CLOUDY    71  63  75 CALM      30.16F
$$

ARZ009-017-025-026-028-151800-
NORTHEAST ARKANSAS

CITY           SKY/WX    TMP DP  RH WIND       PRES   REMARKS
JONESBORO      LGT RAIN  71  61  70 MISG      30.17S
NEWPORT        CLOUDY    73  62  68 SW6       30.18F
WALNUT RIDGE   CLOUDY    63  61  94 SE3       30.16F
BLYTHEVILLE    CLOUDY    74  62  66 W3        30.17F
$$

ARZ022-023-033-042-044-151800-
CENTRAL ARKANSAS

CITY           SKY/WX    TMP DP  RH WIND       PRES   REMARKS
LITTLE ROCK    CLOUDY    74  58  57 CALM      30.17F
N LITTLE ROCK  CLOUDY    72  63  72 S2        30.17F
JACKSONVILLE   CLOUDY    72  62  69 SE2       30.17F
SEARCY         CLOUDY    74  61  63 SW5       30.18F
HOT SPRINGS    CLOUDY    74  61  63 CALM      30.18F
RUSSELLVILLE   CLOUDY    74  62  66 CALM      30.17F
CLINTON        FAIR      66  64  94 CALM      30.19F
$$

ARZ036-151800-
EAST ARKANSAS

CITY           SKY/WX    TMP DP  RH WIND       PRES   REMARKS
WEST MEMPHIS   PTSUNNY   76  61  59 CALM      30.16F
$$

ARZ050-053-066-070-073-151800-
SOUTHWEST ARKANSAS

CITY           SKY/WX    TMP DP  RH WIND       PRES   REMARKS
ARKADELPHIA    FAIR      74  65  73 CALM      30.18F
CAMDEN         CLOUDY    79  64  61 CALM      30.16F
TEXARKANA      CLOUDY    75  66  73 VRB5      30.17S
EL DORADO      PTSUNNY   79  66  64 VRB3      30.16F
DE QUEEN       CLOUDY    73  64  73 CALM      30.17R
$$

ARZ056-057-069-151800-
SOUTHEAST ARKANSAS

CITY           SKY/WX    TMP DP  RH WIND       PRES   REMARKS
PINE BLUFF     CLOUDY    77  63  61 CALM      30.17F
STUTTGART      PTSUNNY   75  63  64 NE5       30.17F
MONTICELLO     CLOUDY    79  65  62 VRB3      30.17F

$$




USA.gov is the U.S. government's official web portal to all federal, state and local government web resources and services.